Flag for Australia Weather past 2 weeks in Hobart, Tasmania, Australia

Now
54 °F

Passing clouds.


Feels Like: 52 °F
Forecast: 34 / 66 °F
Wind: 6 mph from North

Location: Hobart Airport

Current Time: Aug 30, 2014 at 10:56:52 AM

Latest Report: Aug 30, 2014 at 10:00 AM


Visibility: N/A

Pressure: 30.36 "Hg

Humidity: 72%

Dew point: 45 °F

Location of HobartLocation

Historic Weather in Hobart — Graph

°F

Hobart temperature yesterday

Maximum temperature yesterday: 61 °F (at 12:30 PM)
Minimum temperature yesterday: 45 °F (at 1:00 AM)
Average temperature yesterday: 51 °F

Past Weeks' High & Low Weather Summary

 TemperatureHumidityPressure
High68 °F (Aug 27, 2:30 PM)100% (Aug 17, 6:30 AM)30.54 "Hg (Aug 17, 6:30 AM)
Low36 °F (Aug 22, 6:30 AM)39% (Aug 15, 3:00 PM)30.09 "Hg (Aug 17, 1:30 PM)
Average49 °F77%30.32 "Hg
* Reported Aug 15 9:00 AM — Aug 30 9:00 AM, Hobart, Weather by CustomWeather, © 2014

Note: Actual official high and low records may vary slightly from our data, if they occured in-between our weather recording intervals... More about our weather records

Advertising

Hobart weather history for previous 24 hours

 ConditionsComfort  
Time TempWeatherWind HumidityBarometerVisibility
9:00 AM
Aug 30
52 °FPassing clouds.3 mph77%30.36 "HgN/A
8:30 AM46 °FScattered clouds.6 mph87%30.36 "HgN/A
8:00 AM46 °FPartly sunny.8 mph82%30.36 "HgN/A
7:30 AM45 °FPartly sunny.9 mph87%30.36 "HgN/A
7:00 AM43 °FScattered clouds.6 mph93%30.36 "HgN/A
5:00 AM43 °FClear.6 mph87%30.36 "Hg10 mi
4:30 AM43 °FClear.5 mph87%30.36 "Hg10 mi
4:00 AM43 °FClear.7 mph93%30.36 "Hg10 mi
3:30 AM43 °FClear.8 mph93%30.36 "Hg10 mi
3:00 AM43 °FClear.7 mph93%30.36 "Hg10 mi
2:30 AM43 °FClear.7 mph93%30.39 "Hg10 mi
2:00 AM43 °FClear.8 mph93%30.39 "Hg10 mi
1:30 AM45 °FClear.8 mph87%30.39 "Hg10 mi
1:00 AM45 °FClear.8 mph87%30.39 "Hg10 mi
12:30 AM45 °FClear.10 mph87%30.39 "Hg10 mi
12:00 AM45 °FClear.8 mph93%30.39 "Hg10 mi
11:30 PM
Aug 29
45 °FClear.10 mph93%30.39 "Hg10 mi
11:00 PM45 °FPassing clouds.8 mph93%30.39 "HgN/A
10:30 PM46 °FPassing clouds.6 mph87%30.39 "HgN/A
10:00 PM45 °FPassing clouds.1 mph93%30.42 "HgN/A
9:30 PM46 °FPassing clouds.6 mph93%30.39 "HgN/A
9:00 PM45 °FPassing clouds.No wind87%30.42 "HgN/A
8:30 PM45 °FPassing clouds.No wind93%30.39 "HgN/A
8:00 PM46 °FPassing clouds.No wind87%30.39 "HgN/A
7:30 PM48 °FPassing clouds.No wind87%30.39 "HgN/A
7:00 PM52 °FPassing clouds.6 mph82%30.39 "HgN/A
6:30 PM54 °FPassing clouds.5 mph72%30.39 "HgN/A
6:00 PM54 °FPassing clouds.5 mph77%30.39 "HgN/A
5:30 PM55 °FPassing clouds.5 mph72%30.39 "HgN/A
5:00 PM57 °FPassing clouds.6 mph72%30.36 "HgN/A
4:30 PM59 °FPassing clouds.7 mph59%30.36 "HgN/A
4:00 PM59 °FPassing clouds.7 mph59%30.36 "HgN/A
3:30 PM61 °FPassing clouds.9 mph55%30.36 "HgN/A
3:00 PM61 °FPassing clouds.10 mph55%30.36 "HgN/A
2:30 PM59 °FPassing clouds.9 mph59%30.36 "HgN/A
2:00 PM61 °FPassing clouds.9 mph55%30.36 "HgN/A
1:30 PM61 °FPassing clouds.9 mph55%30.36 "HgN/A
1:00 PM61 °FPassing clouds.10 mph55%30.39 "HgN/A
12:30 PM61 °FPassing clouds.5 mph55%30.39 "HgN/A
12:00 PM59 °FPassing clouds.6 mph55%30.39 "HgN/A
11:00 AM57 °FScattered clouds.8 mph55%30.39 "HgN/A
10:30 AM55 °FScattered clouds.9 mph55%30.39 "HgN/A
10:00 AM54 °FScattered clouds.10 mph63%30.42 "HgN/A
Weather by CustomWeather, © 2014

See weather overviewHow to use our weather pages